Tracking 29892 objects as of 21-Nov-2024
HD Live streaming from Space Station
objects crossing your sky now

FENGYUN 1C DEB

Track FENGYUN 1C DEB now!
10-day predictions


NORAD ID: 30074
Int'l Code: 1999-025QB
Perigee: 793.6 km
Apogee: 939.8 km
Inclination: 99.2 °
Period: 102.1 minutes
Semi major axis: 7237 km
RCS: 0.008 m2 (small)
Launch date: May 10, 1999
Source: People's Republic of China (PRC)
Launch site: Taiyaun Space Center, China (TSC)

Note: This is SATELLITE DEBRIS
Your satellite tracking list
Your tracking list is empty




NASA's NSSDC Master Catalog

Two Line Element Set (TLE):
1 30074U 99025QB  24325.10884086  .00004808  00000-0  26256-2 0  9993
2 30074  99.1558  18.1190 0101002 158.7110 201.8307 14.09937894911938
Source of the keplerian elements: AFSPC